Regional Weather Roundup
Issued by NWS Little Rock, AR

Home | Current Version | Previous Version | Text Only | Print | Product List | Glossary On
Versions: 1 2 3 4 5 6 7 8 9 10 11 12 13 14 15 16 17 18 19 20 21 22 23 24 25 26 27 28 29 30 31 32 33 34 35 36 37 38 39 40 41 42 43 44 45 46 47 48 49 50
000
ASUS44 KLZK 051405
RWRLZK

WEATHER ROUNDUP FOR ARKANSAS
NATIONAL WEATHER SERVICE LITTLE ROCK AR
900 AM CDT TUE MAY 05 2015

NOTE: "FAIR" INDICATES FEW OR NO CLOUDS BELOW 12,000 FEET WITH NO
SIGNIFICANT WEATHER AND/OR OBSTRUCTIONS TO VISIBILITY.

ARZ001-003-010-029-051500-
NORTHWEST ARKANSAS

CITY           SKY/WX    TMP DP  RH WIND       PRES   REMARKS
FAYETTEVILLE   PTSUNNY   66  63  90 S6        30.15F
FORT SMITH     MOSUNNY   71  61  70 E9        30.13S
HARRISON       PTSUNNY   66  59  78 SE6       30.19R
BENTONVILLE    SUNNY     70  59  68 S7        30.16S
ROGERS         SUNNY     68  60  75 SE10      30.16S
SILOAM SPGS    MOSUNNY   68  57  68 SE9       30.15S
SPRINGDALE     MOSUNNY   68  61  77 SE6       30.17S
$$

ARZ004-005-016-051500-
NORTH CENTRAL ARKANSAS

CITY           SKY/WX    TMP DP  RH WIND       PRES   REMARKS
BATESVILLE     PTSUNNY   68  61  77 CALM      30.20S
FLIPPIN        MOSUNNY   64  59  82 E3        30.18S
MTN HOME       SUNNY     68  59  73 SE7       30.18S
$$

ARZ040-041-051500-
WEST CENTRAL ARKANSAS

CITY           SKY/WX    TMP DP  RH WIND       PRES   REMARKS
MENA           PTSUNNY   72  64  78 S6        30.16R
MOUNT IDA      MOSUNNY   72  63  73 VRB6      30.14R
$$

ARZ009-017-025-026-028-051500-
NORTHEAST ARKANSAS

CITY           SKY/WX    TMP DP  RH WIND       PRES   REMARKS
CORNING          N/A     73  59  60 SW10      30.22S
JONESBORO      MOSUNNY   71  61  70 S5        30.22R
NEWPORT        MOSUNNY   73  61  66 SW6       30.22S
WALNUT RIDGE   SUNNY     72  57  60 SW9       30.21F
BLYTHEVILLE    CLOUDY    74  60  61 SW10      30.24R
NW BLYTHEVILLE PTSUNNY   73  59  60 S14       30.23R
$$

ARZ022-023-033-042-044-051500-
CENTRAL ARKANSAS

CITY           SKY/WX    TMP DP  RH WIND       PRES   REMARKS
LITTLE ROCK    PTSUNNY   74  62  66 S8        30.19R
N LITTLE ROCK  PTSUNNY   70  65  83 S8        30.19R
SEARCY         CLOUDY    71  64  78 S6        30.22S
HOT SPRINGS    MOSUNNY   72  62  71 S7        30.17S
RUSSELLVILLE   SUNNY     72  63  73 E6        30.17S
CLINTON        FAIR      64  63  94 CALM      30.21S FOG
$$

ARZ036-051500-
EAST ARKANSAS

CITY           SKY/WX    TMP DP  RH WIND       PRES   REMARKS
WEST MEMPHIS   CLOUDY    72  63  73 S8        30.22S
$$

ARZ050-053-066-070-073-051500-
SOUTHWEST ARKANSAS

CITY           SKY/WX    TMP DP  RH WIND       PRES   REMARKS
ARKADELPHIA    FAIR      72  67  84 VRB6      30.17S
CAMDEN         PTSUNNY   73  61  64 NE9       30.17S
TEXARKANA      PTSUNNY   70  65  84 SE10      30.14S
EL DORADO      PTSUNNY   71  62  73 SE10G18   30.18R
DE QUEEN       CLOUDY    70  65  84 E6        30.12S
$$

ARZ056-057-069-051500-
SOUTHEAST ARKANSAS

CITY           SKY/WX    TMP DP  RH WIND       PRES   REMARKS
PINE BLUFF     SUNNY     73  62  68 S9        30.19S
STUTTGART      SUNNY     73  61  64 SE8       30.20F
MONTICELLO     SUNNY     72  63  73 SE10      30.20R

$$





USA.gov is the U.S. government's official web portal to all federal, state and local government web resources and services.